Pella, IA

6:04 PM CST on February 06, 2016 (GMT -0600)
Pella Municipal

Weather History for KPEA - October, 2012

Change the Weather History Date:

Thursday, October 18, 2012

  Actual Average (KOXV) Record (KOXV)
Temperature  
Mean Temperature 47 °F -  
Max Temperature 50 °F 59 °F 88 °F (1950)
Min Temperature 44 °F 40 °F 5 °F (1997)
Degree Days  
Heating Degree Days 18    
Moisture  
Dew Point 38 °F    
Average Humidity 74    
Maximum Humidity 94    
Minimum Humidity 41    
Precipitation  
Precipitation 0.01 in - - ()
Sea Level Pressure  
Sea Level Pressure 29.42 in    
Wind  
Wind Speed 14 mph (West)    
Max Wind Speed 24 mph    
Max Gust Speed 37 mph    
Visibility 8 miles    
Events Rain    
Averages and records for this station are not official NWS values.
T = Trace of Precipitation, MM = Missing Value Source: NWS Daily Summary

Daily Weather History Graph

Daily Weather History Graph

Search for Another Location

Airport or City:

Trip Planner

Search our weather history database for the weather conditions in past years. The results will help you decide how hot, cold, wet, or windy it might be!

Date:

Astronomy

Oct. 18, 2012 Rise Set
Actual Time 7:27 AM CDT 6:25 PM CDT
Civil Twilight 6:59 AM CDT 6:53 PM CDT
Nautical Twilight 6:27 AM CDT 7:25 PM CDT
Astronomical Twilight 5:55 AM CDT 7:57 PM CDT
Moon 11:12 AM CDT (10/18) 8:57 PM CDT (10/18)
Length of Visible Light 11h 53m
Length of Day
10h 57m
Waxing Crescent, 14% of the Moon is Illuminated
Oct 18
Waxing Crescent
Oct 21
First Quarter
Oct 29
Full
Nov 6
Last Quarter
Nov 13
New

Hourly Weather History & Observations

Time (CDT) Temp. Windchill Dew Point Humidity Pressure Visibility Wind Dir Wind Speed Gust Speed Precip Events Conditions
12:15 AM 49.1 °F - 32.7 °F 53% 29.47 in 10.0 mi West 10.4 mph 17.3 mph N/A   Clear
12:35 AM 48.6 °F - 33.8 °F 57% 29.46 in 10.0 mi West 12.7 mph - N/A   Clear
12:55 AM 48.7 °F - 33.4 °F 56% 29.47 in 10.0 mi West 12.7 mph - N/A   Scattered Clouds
1:15 AM 49.6 °F - 33.3 °F 53% 29.47 in 10.0 mi West 11.5 mph - N/A   Scattered Clouds
1:35 AM 49.5 °F - 33.6 °F 54% 29.46 in 10.0 mi WSW 8.1 mph - N/A   Scattered Clouds
1:55 AM 49.5 °F - 32.5 °F 52% 29.46 in 10.0 mi WSW 11.5 mph - N/A   Scattered Clouds
2:15 AM 50.4 °F - 31.3 °F 48% 29.46 in 10.0 mi WSW 12.7 mph 19.6 mph N/A   Scattered Clouds
2:35 AM 50.7 °F - 31.1 °F 47% 29.46 in 10.0 mi WSW 9.2 mph - N/A   Scattered Clouds
2:55 AM 50.2 °F - 31.3 °F 48% 29.46 in 10.0 mi West 12.7 mph - N/A   Scattered Clouds
3:15 AM 50.2 °F - 30.9 °F 48% 29.45 in 10.0 mi West 10.4 mph - N/A   Mostly Cloudy
3:35 AM 50.0 °F - 31.1 °F 48% 29.45 in 10.0 mi West 9.2 mph - N/A   Mostly Cloudy
3:55 AM 50.2 °F - 29.5 °F 45% 29.45 in 10.0 mi West 11.5 mph 16.1 mph N/A   Mostly Cloudy
4:15 AM 50.0 °F - 29.3 °F 45% 29.44 in 10.0 mi West 11.5 mph - N/A   Mostly Cloudy
4:35 AM 50.2 °F - 28.2 °F 43% 29.44 in 10.0 mi West 12.7 mph - N/A   Mostly Cloudy
4:55 AM 50.4 °F - 27.7 °F 42% 29.44 in 10.0 mi West 15.0 mph 18.4 mph N/A   Mostly Cloudy
5:15 AM 50.9 °F - 28.0 °F 41% 29.43 in 10.0 mi West 19.6 mph 25.3 mph N/A   Mostly Cloudy
5:35 AM 50.5 °F - 28.4 °F 42% 29.43 in 10.0 mi West 15.0 mph 19.6 mph N/A   Mostly Cloudy
5:55 AM 50.2 °F - 28.2 °F 43% 29.42 in 10.0 mi West 12.7 mph 19.6 mph N/A   Scattered Clouds
6:35 AM 49.6 °F - 28.0 °F 43% 29.42 in 10.0 mi WSW 12.7 mph 18.4 mph N/A   Overcast
6:55 AM 49.5 °F - 27.5 °F 43% 29.41 in 10.0 mi West 16.1 mph 23.0 mph N/A   Overcast
7:15 AM 49.5 °F - 28.2 °F 44% 29.41 in 10.0 mi West 23.0 mph 29.9 mph N/A   Mostly Cloudy
7:35 AM 48.4 °F - 31.8 °F 53% 29.41 in 10.0 mi WNW 17.3 mph 25.3 mph N/A   Mostly Cloudy
7:55 AM 48.2 °F - 32.9 °F 55% 29.42 in 10.0 mi WNW 16.1 mph 25.3 mph N/A   Scattered Clouds
8:15 AM 46.0 °F 39.0 °F 35.6 °F 67% 29.43 in 7.0 mi West 17.3 mph 28.8 mph N/A   Drizzle
8:35 AM 45.0 °F 37.4 °F 35.4 °F 69% 29.43 in 7.0 mi West 18.4 mph 26.5 mph N/A   Drizzle
8:55 AM 44.2 °F 37.6 °F 37.4 °F 77% 29.43 in 5.0 mi West 13.8 mph 26.5 mph N/A   Drizzle
9:15 AM 44.1 °F 37.1 °F 38.7 °F 81% 29.42 in 10.0 mi West 15.0 mph 19.6 mph N/A   Drizzle
9:35 AM 44.6 °F 37.4 °F 39.4 °F 82% 29.41 in 7.0 mi WSW 16.1 mph 24.2 mph N/A   Drizzle
9:55 AM 44.6 °F 36.4 °F 39.2 °F 81% 29.42 in 5.0 mi West 20.7 mph 32.2 mph N/A   Drizzle
10:15 AM 44.1 °F 36.2 °F 39.2 °F 83% 29.41 in 5.0 mi West 18.4 mph 27.6 mph N/A   Drizzle
10:35 AM 44.2 °F 36.4 °F 39.6 °F 84% 29.41 in 5.0 mi West 18.4 mph 27.6 mph N/A   Drizzle
10:55 AM 44.2 °F 36.2 °F 39.4 °F 83% 29.40 in 5.0 mi West 19.6 mph 26.5 mph N/A Rain Rain
11:15 AM 44.6 °F 35.7 °F 39.7 °F 83% 29.40 in 5.0 mi West 24.2 mph 29.9 mph N/A   Drizzle
11:35 AM 44.6 °F 36.4 °F 40.1 °F 84% 29.40 in 5.0 mi West 20.7 mph 28.8 mph N/A Rain Rain
11:55 AM 44.6 °F 36.1 °F 40.3 °F 85% 29.40 in 5.0 mi West 21.9 mph 29.9 mph N/A Rain Rain
12:15 PM 44.8 °F 36.9 °F 40.3 °F 84% 29.40 in 5.0 mi West 19.6 mph 31.1 mph N/A Rain Light Rain
12:35 PM 45.0 °F 36.6 °F 40.1 °F 83% 29.40 in 5.0 mi West 21.9 mph 31.1 mph N/A Rain Rain
12:55 PM 45.5 °F 38.3 °F 40.3 °F 82% 29.40 in 5.0 mi West 17.3 mph 36.8 mph N/A   Drizzle
1:15 PM 45.0 °F 36.9 °F 40.5 °F 84% 29.39 in 5.0 mi West 20.7 mph 31.1 mph N/A   Drizzle
1:35 PM 45.0 °F 36.4 °F 41.0 °F 86% 29.39 in 5.0 mi WSW 23.0 mph 33.4 mph N/A   Drizzle
1:55 PM 44.8 °F 37.7 °F 40.8 °F 86% 29.39 in 5.0 mi WSW 16.1 mph 32.2 mph N/A   Drizzle
2:15 PM 44.8 °F 37.7 °F 41.0 °F 87% 29.39 in 5.0 mi West 16.1 mph 32.2 mph N/A   Drizzle
2:35 PM 44.6 °F 37.4 °F 41.2 °F 88% 29.39 in 5.0 mi WSW 16.1 mph 28.8 mph N/A Rain Rain
2:55 PM 44.8 °F 37.1 °F 41.5 °F 88% 29.39 in 5.0 mi WSW 18.4 mph 26.5 mph N/A Rain Light Rain
3:15 PM 44.6 °F 36.6 °F 41.2 °F 88% 29.40 in 7.0 mi WSW 19.6 mph 31.1 mph N/A Rain Rain
3:35 PM 44.6 °F 38.4 °F 41.9 °F 90% 29.40 in 10.0 mi WSW 12.7 mph 20.7 mph N/A Rain Rain
3:55 PM 44.6 °F 38.1 °F 41.9 °F 90% 29.39 in 7.0 mi WSW 13.8 mph 24.2 mph N/A   Drizzle
4:15 PM 45.0 °F 38.2 °F 42.1 °F 90% 29.39 in 10.0 mi WSW 15.0 mph 21.9 mph N/A   Drizzle
4:35 PM 45.0 °F 38.5 °F 42.3 °F 90% 29.39 in 5.0 mi WSW 13.8 mph 24.2 mph N/A   Drizzle
4:55 PM 45.5 °F 39.2 °F 42.6 °F 90% 29.39 in 7.0 mi WSW 13.8 mph 24.2 mph N/A Rain Light Rain
5:15 PM 45.5 °F 39.2 °F 42.4 °F 89% 29.39 in 10.0 mi WSW 13.8 mph 24.2 mph N/A   Mostly Cloudy
5:35 PM 45.5 °F 39.2 °F 42.6 °F 90% 29.39 in 7.0 mi WSW 13.8 mph 23.0 mph N/A   Mostly Cloudy
5:55 PM 45.1 °F 39.1 °F 42.8 °F 91% 29.39 in 4.0 mi WSW 12.7 mph 19.6 mph N/A   Drizzle
6:15 PM 45.5 °F 39.2 °F 42.6 °F 90% 29.39 in 7.0 mi WSW 13.8 mph 24.2 mph N/A   Drizzle
6:35 PM 45.0 °F 38.5 °F 42.3 °F 90% 29.39 in 10.0 mi West 13.8 mph - N/A   Drizzle
6:55 PM 44.8 °F 38.7 °F 42.4 °F 91% 29.39 in 10.0 mi West 12.7 mph 17.3 mph N/A Rain Rain
7:15 PM 44.8 °F 38.7 °F 42.8 °F 93% 29.40 in 10.0 mi West 12.7 mph 17.3 mph N/A Rain Light Rain
7:35 PM 45.0 °F 38.9 °F 43.0 °F 93% 29.40 in 10.0 mi WSW 12.7 mph 17.3 mph N/A Rain Rain
7:55 PM 45.1 °F 39.5 °F 43.2 °F 93% 29.40 in 10.0 mi West 11.5 mph - N/A Rain Light Rain
8:15 PM 45.5 °F 40.3 °F 43.7 °F 93% 29.40 in 10.0 mi West 10.4 mph - 0.01 in Rain Light Rain
8:35 PM 45.9 °F 40.0 °F 44.1 °F 93% 29.41 in 5.0 mi West 12.7 mph - 0.01 in   Overcast
8:55 PM 46.4 °F 41.5 °F 44.6 °F 93% 29.41 in 10.0 mi West 10.4 mph - 0.01 in   Overcast
9:15 PM 46.6 °F - 45.0 °F 94% 29.41 in 10.0 mi West 11.5 mph - N/A   Overcast
9:35 PM 47.3 °F - 45.5 °F 93% 29.41 in 10.0 mi West 13.8 mph 23.0 mph N/A   Overcast
9:55 PM 47.5 °F - 45.1 °F 92% 29.42 in 10.0 mi WNW 13.8 mph - N/A   Overcast
10:15 PM 47.5 °F - 44.6 °F 90% 29.42 in 10.0 mi WNW 15.0 mph 24.2 mph N/A   Overcast
10:35 PM 47.5 °F - 44.6 °F 90% 29.42 in 10.0 mi WNW 15.0 mph 26.5 mph N/A Rain Light Rain
10:55 PM 47.3 °F - 44.8 °F 91% 29.43 in 10.0 mi West 13.8 mph 18.4 mph N/A Rain Light Rain